Location: Stigler
(35.2540°N, 95.1230°W)
Time: 14:33:40
(UTC-06:00)

Daily predictions for brighter satellites

Satellite Brightness Start Highest point End
(mag) Time Altitude Azimuth Time Altitude Azimuth Time Altitude Azimuth
SJ-7 4.5 17:32:20 10° SSE 17:36:25 58° ENE 17:40:27 10° N
Cosmos 304 Rocket 3.7 17:32:32 10° NNW 17:37:20 78° ENE 17:42:07 10° SSE
GPS 2-05 Rocket1 3.1 17:35:09 10° WSW 17:38:12 52° SSE 17:41:20 10° E
Cosmos 2233 Rocket 4.1 17:32:37 10° S 17:38:52 90° E 17:45:07 10° N
Okean 1-7 3.7 17:35:25 10° SSE 17:39:21 34° E 17:43:20 10° NNE
SJ-12 4.5 17:37:21 10° S 17:41:28 66° WSW 17:45:36 10° NNW
OAO 3 Copernicus 4.5 17:38:48 10° W 17:43:53 77° S 17:48:58 10° ESE
CSL-04 Debris 4.1 17:40:20 10° SSE 17:45:44 75° ENE 17:51:09 10° N
Sich 1 Rocket 3.7 17:45:36 10° N 17:49:58 55° E 17:54:21 10° SSE
Cosmos 1763 Rocket 3.7 17:46:21 10° NNW 17:51:32 74° WSW 17:56:36 10° S
Cosmos 44 4.2 17:51:26 10° N 17:55:28 27° NE 17:59:39 10° ESE
AQUARIUS 4.1 17:51:16 10° SSE 17:55:46 83° ENE 18:00:15 10° N
Cosmos 1833 Rocket 3.0 17:51:02 10° N 17:56:23 43° ENE 18:01:42 10° SE
Cosmos 2369 Rocket 4.0 17:56:17 10° ESE 17:57:09 10° E 17:57:34 10° E
Meteor 1-10 Rocket 4.4 17:52:03 10° S 17:57:33 56° E 18:03:11 10° NNE
MTI 4.0 17:57:27 10° NNE 18:00:35 47° E 18:03:41 10° S
CORIOLIS 4.1 17:56:35 10° SSE 18:02:01 81° ENE 18:07:28 10° N
Cosmos 2297 3.7 17:57:42 10° SSW 18:03:24 87° ESE 18:09:11 10° NNE
Cosmos 2278 Rocket 3.7 18:00:40 10° SW 18:05:48 35° WNW 18:11:00 10° N
USA 116 3.7 18:01:46 10° N 18:05:59 86° WNW 18:09:41 10° SSW
Cosmos 1782 Rocket 3.5 18:04:00 10° N 18:08:19 61° E 18:12:37 10° SSE
ALOS 3.1 18:04:57 10° SE 18:08:55 28° ENE 18:12:54 10° NNE
Cosmos 405 4.0 18:06:17 10° NNE 18:09:19 25° ENE 18:12:19 10° SE
SL-27 R/B 2.6 18:07:30 10° NNW 18:10:51 71° WSW 18:14:11 10° S
YAOGAN 1 2.5 18:06:58 10° SSE 18:11:14 64° ENE 18:15:31 10° N
Cosmos 540 Rocket 3.4 18:06:59 10° N 18:12:07 61° ENE 18:17:12 10° SSE
Meteor 1-28 Rocket 4.1 18:11:16 10° N 18:14:51 50° WNW 18:18:27 10° SSW
Tiangong 1 0.6 18:12:26 10° SW 18:15:01 61° SSE 18:15:53 34° E
SMAP 3.7 18:10:39 10° S 18:15:13 58° W 18:19:49 10° NNW
COSMO-SKYMED 1 2.5 18:11:16 10° NNE 18:15:36 64° E 18:19:53 10° S
Cosmos 968 Rocket 3.8 18:11:27 10° S 18:16:19 43° ESE 18:20:41 13° NNE
Cosmos 1606 3.6 18:16:05 10° SSW 18:19:45 50° W 18:23:26 10° N
USA 234 3.4 18:14:25 15° NE 18:19:56 60° SE 18:26:21 10° SSW
Cosmos 1441 Rocket 3.3 18:17:04 10° S 18:20:56 54° E 18:24:29 12° NNE
Ariane Rocket 4.1 18:16:42 10° S 18:21:35 48° W 18:26:29 10° NNW
Cosmos 1891 Rocket 4.4 18:17:12 10° S 18:23:20 73° E 18:29:24 10° N
CZ-4C R/B 3.4 18:20:10 10° NNW 18:26:53 38° NE 18:32:49 15° ESE
Meteor 1-11 Rocket 3.9 18:25:56 10° N 18:31:34 49° ENE 18:37:03 10° SSE
METEOR-M 4.1 18:27:03 10° SSE 18:32:23 87° ENE 18:37:44 10° NNW
Centaur D AC-29 3.6 18:32:42 10° WSW 18:36:41 18° SSW 18:39:16 10° SSE
EO 1 Del DPAF 3.5 18:33:03 10° N 18:36:52 69° WNW 18:40:38 10° SSW
Cosmos 2221 Rocket 4.4 18:32:53 10° SSW 18:37:10 52° W 18:41:29 10° N
ERS-2 2.4 18:36:41 10° S 18:40:19 68° WSW 18:44:00 10° NNW
DMSP B5D1-3 4.4 18:35:44 10° NNE 18:40:53 70° ESE 18:46:00 10° S
Nadezhda 4 Rocket 4.0 18:34:58 10° N 18:40:55 52° E 18:46:51 10° SSE
Cosmos 2151 Rocket 3.7 18:39:16 10° N 18:43:31 46° E 18:47:47 10° SSE
CZ-4 R/B 3.3 18:40:31 10° SSW 18:43:55 29° W 18:47:18 10° NW
NOSS 3-1 (C) 4.5 18:40:36 10° SSE 18:43:57 22° ESE 18:43:57 22° ESE
Meteor 2-20 4.3 18:39:27 10° N 18:45:32 73° E 18:51:34 10° SSE
Cosmos 2034 Rocket 4.1 18:40:03 10° S 18:46:25 85° W 18:52:48 10° N
OAO 3 Rocket 3.2 18:42:17 10° WSW 18:47:12 74° SSE 18:48:44 43° E
BREEZE-M DEB (TANK) 4.4 18:45:45 10° NNW 18:46:38 15° N 18:46:38 15° N
Cosmos 2082 Rocket 2.5 18:43:23 10° NNW 18:49:00 67° WSW 18:54:35 10° S
Gblst 52 Del rocket 4.2 18:43:59 10° SW 18:49:27 67° SE 18:51:35 39° ENE
MOS 1 4.4 18:44:36 10° S 18:50:17 76° WSW 18:56:00 10° NNW
Cosmos 1602 4.0 18:49:36 10° NNW 18:53:25 67° W 18:57:14 10° S
Okean 2 Rocket 3.7 18:51:55 10° NNW 18:56:22 57° W 19:00:46 10° S
Cosmos 405 Rocket 4.2 18:53:12 10° SW 18:56:42 35° WNW 19:00:09 10° N
Timation 2 Rocket 4.1 18:52:52 10° NNW 18:59:30 58° ENE 19:03:17 25° SE
Cosmos 1092 Rocket 4.0 18:54:05 10° N 19:00:04 51° E 19:06:03 10° SSE
Centaur D AC-28 3.9 18:55:42 10° WSW 19:00:50 57° S 19:11:43 25° ESE
Cosmos 783 Rocket 4.5 19:01:33 10° NNW 19:06:54 86° WSW 19:12:12 10° SSE
USA 229 DEB 3.5 19:00:34 10° SSW 19:07:17 82° ESE 19:10:13 37° NE
USA 229 3.5 19:00:40 10° SSW 19:07:23 81° ESE 19:10:16 38° NE
Cosmos 1674 Rocket 3.7 19:03:28 10° S 19:07:04 57° SSE 19:07:04 57° SSE
SPOT 3 Rocket 4.2 19:06:13 10° S 19:11:20 56° W 19:16:28 10° NNW
FengYun 1-2 T 4.1 19:09:37 10° SSE 19:15:04 68° ENE 19:20:36 10° N
ISS -1.6 19:14:05 10° SW 19:15:23 22° SW 19:15:23 22° SW
FENGYUN 3A 4.2 19:12:14 10° S 19:17:33 59° W 19:22:54 10° NNW
Cosmos 44 Rocket 3.9 19:12:46 10° NW 19:17:35 57° WSW 19:21:07 18° S
Meteor 1-5 Rocket 4.0 19:22:46 10° N 19:28:05 80° W 19:33:21 10° S
Cosmos 2369 Rocket 2.4 19:34:43 10° SSW 19:39:26 63° SW 19:39:26 63° SW
Thor Agena Rocket 4.2 19:45:30 51° WNW 19:45:33 51° WNW 19:50:31 10° SSW
ALOS 4.5 19:42:32 10° SSW 19:46:17 24° W 19:50:03 10° NW
USA 234 4.2 20:01:47 36° NNW 20:02:41 37° NW 20:08:34 10° W
Cosmos 1943 Rocket 4.1 19:58:57 10° SSW 20:00:40 21° SSW 20:00:40 21° SSW
CZ-4C R/B 3.7 20:08:31 10° NW 20:15:40 49° WSW 20:18:12 37° SSW
